Regional Weather Roundup
Issued by NWS Sioux Falls, SD

Home | Current Version | Previous Version | Graphics & Text | Print | Product List | Glossary Off
Versions: 1 2 3 4 5 6 7 8 9 10 11 12 13 14 15 16 17 18 19 20 21 22 23 24 25 26 27 28 29 30 31 32 33 34 35 36 37 38 39 40 41 42 43 44 45 46 47 48 49 50

000
ASUS43 KFSD 271302
RWRFSD

WEATHER ROUNDUP FOR SE SOUTH DAKOTA/SW MINNESOTA/NW IOWA
NATIONAL WEATHER SERVICE SIOUX FALLS SD
700 AM CST TUE JAN 27 2015

NOTE: "FAIR" INDICATES FEW OR NO CLOUDS BELOW 12,000 FEET WITH NO
SIGNIFICANT WEATHER AND OR OBSTRUCTIONS TO VISIBILITY.


SDZ038>040-050-052>070-271400-
SOUTHEAST SOUTH DAKOTA

CITY           SKY/WX    TMP DP  RH WIND       PRES   REMARKS
CHAMBERLAIN    NOT AVBL
HURON          CLEAR     27  26  96 SE6       30.03R WCI  20
MADISON        FAIR      28  28 100 SE6       30.05R WCI  22
MITCHELL       CLEAR     28  27  96 SE6       30.04R WCI  22
SIOUX FALLS    PTCLDY    24  22  91 NE3       30.07R FOG
WINNER         FAIR      38  30  73 S10       29.95S
YANKTON        CLEAR     28  27  93 E3        30.07S
$$

MNZ071-072-080-081-089-090-097-098-271400-
SOUTHWEST MINNESOTA

CITY           SKY/WX    TMP DP  RH WIND       PRES   REMARKS
FAIRMONT       CLEAR     27  23  86 N3        30.09R
JACKSON        CLOUDY    30  30 100 E5        30.09R WCI  25
LUVERNE        FOG       32  30  93 E5        30.09R VSB 1/2 WCI  27
MARSHALL       CLOUDY    28  27  93 CALM      30.11R VSB 3/4
MONTEVIDEO     CLOUDY    28  28 100 S6        30.11R WCI  22
PIPESTONE      FOG       28  28 100 E6        30.06R VSB 1/4 WCI  22
REDWOOD FALLS  CLOUDY    32  29  88 CALM      30.10R
TRACY          FOG       30  30  98 SE3       30.10R VSB 1/4
WINDOM         CLOUDY    28  28 100 CALM      30.10R FOG
WORTHINGTON    CLOUDY    28  27  93 E6        30.09R WCI  22
$$

IAZ001>003-012>014-020>022-031-032-NEZ013-014-SDZ071-271400-
NORTHWEST IOWA

CITY           SKY/WX    TMP DP  RH WIND       PRES   REMARKS
ESTHERVILLE    FOG       28  27  96 N6        30.09R VSB 1/2 WCI  22
SIOUX CITY     FOG       27  25  92 E3        30.10R VSB 1
SPENCER        CLOUDY    31  28  89 NE8       30.09R WCI  23
$$

ABBREVIATIONS USED IN REMARKS
   TC - TEMPERATURE IN CELSIUS
  WCI - WIND CHILL INDEX
   HX - HEAT INDEX
  VSB - VISIBILITY



USA.gov is the U.S. government's official web portal to all federal, state and local government web resources and services.